DW8353 Weather Reports


time (UTC)temp
C
wind
direction
speed
KPH
gust
KPH
rain 1hr
cm
rain 24hr
cm
rain mn
cm
humidity
%
barometer
mb
20260504120107 10 254 0.0 12.9 0.00 0.00 0.00 60 1012.3
20260504081525 1 276 0.0 0.0 0.00 0.00 0.00 88 1011.4
20260504050010 2 276 0.0 0.0 0.00 0.00 0.00 87 1011.5
20260504044514 1 276 0.0 0.0 0.00 0.00 0.00 85 1011.6
20260504043006 1 276 0.0 0.0 0.00 0.00 0.00 84 1011.6
20260504041504 1 276 0.0 0.0 0.00 0.00 0.00 82 1011.4
20260504040109 2 276 0.0 0.0 0.00 0.00 0.00 81 1011.3
20260504034601 2 276 0.0 0.0 0.00 0.00 0.00 80 1011.4
20260504033101 2 276 0.0 0.0 0.00 0.00 0.00 81 1011.2
20260504031604 2 276 0.0 0.0 0.00 0.00 0.00 81 1011.2
20260504030057 2 276 0.0 0.0 0.00 0.00 0.00 79 1011.1
20260504024558 2 276 0.0 0.0 0.00 0.00 0.00 78 1011.1
20260504023058 3 276 0.0 0.0 0.00 0.00 0.00 77 1011.1
20260504021555 3 276 0.0 0.0 0.00 0.00 0.00 75 1011.1
20260504020054 3 276 0.0 0.0 0.00 0.00 0.00 72 1011.0
20260504014600 5 276 0.0 0.0 0.00 0.00 0.00 71 1011.0
20260504013058 5 276 0.0 0.0 0.00 0.00 0.00 67 1010.8
20260504011551 6 276 0.0 0.0 0.00 0.00 0.00 61 1010.6
20260504010110 7 276 0.0 0.0 0.00 0.00 0.00 57 1010.4
20260504004550 7 276 0.0 0.0 0.00 0.00 0.00 54 1010.3
20260504003049 7 276 0.0 0.0 0.00 0.00 0.00 51 1010.0
20260504001558 8 276 0.0 0.0 0.00 0.00 0.00 47 1009.8
20260504000050 8 276 0.0 3.2 0.00 0.00 0.00 43 1009.5
20260503234549 9 304 0.0 9.7 0.00 0.00 0.00 41 1009.3
20260503233054 10 306 8.0 17.7 0.00 0.00 0.00 38 1009.2
20260503231547 10 309 9.7 20.9 0.00 0.00 0.00 37 1009.0
20260503230046 11 333 11.3 30.6 0.00 0.00 0.00 36 1009.0
20260503224546 11 301 8.0 17.7 0.00 0.00 0.00 39 1009.0
20260503223044 11 310 8.0 25.7 0.00 0.00 0.00 39 1008.9
20260503221551 10 317 12.9 25.7 0.00 0.00 0.00 40 1008.9
20260503220047 10 306 6.4 20.9 0.00 0.00 0.00 41 1009.0
20260503214542 10 323 14.5 32.2 0.00 0.00 0.00 39 1009.0
20260503213039 10 272 12.9 35.4 0.00 0.00 0.00 40 1008.9
20260503211540 10 219 12.9 25.7 0.00 0.00 0.00 42 1008.9
20260503210048 10 309 9.7 30.6 0.00 0.00 0.00 43 1008.9
20260503204546 10 310 6.4 24.1 0.00 0.00 0.00 43 1008.8
20260503203037 10 319 14.5 30.6 0.00 0.00 0.00 44 1008.8
20260503201537 10 355 8.0 37.0 0.00 0.00 0.00 44 1008.8
20260503200043 10 342 11.3 33.8 0.00 0.00 0.00 44 1009.0
20260503194534 10 302 14.5 38.6 0.00 0.00 0.00 46 1008.9
20260503193034 10 355 9.7 32.2 0.00 0.00 0.00 46 1008.9
20260503191534 8 360 8.0 25.7 0.00 0.00 0.00 48 1009.0
20260503190043 9 306 11.3 25.7 0.00 0.00 0.00 48 1009.0
20260503184532 9 335 11.3 32.2 0.00 0.00 0.00 45 1009.1
20260503183033 10 342 12.9 27.4 0.00 0.00 0.00 47 1009.1
20260503181532 9 330 9.7 29.0 0.00 0.00 0.00 47 1008.9
20260503180030 9 355 14.5 30.6 0.00 0.00 0.00 45 1008.9
20260503174530 9 317 22.5 40.2 0.00 0.00 0.00 44 1008.7
20260503173034 9 324 12.9 25.7 0.00 0.00 0.00 47 1008.8
20260503171527 9 333 11.3 20.9 0.00 0.00 0.00 47 1008.8